K5UTC Weather Reports


Display with metric or nautical units.
time (UTC)temp
F
wind
direction
speed
MPH
gust
MPH
rain 1hr
in
rain 24hr
in
rain mn
in
humidity
%
barometer
mb
20260906131735 78 129 0.0 1.0 0.00 0.27 0.27 90 1012.7
20260906131230 77 163 1.0 1.0 0.00 0.27 0.27 88 1013.0
20260906130726 77 137 0.0 0.0 0.00 0.27 0.27 90 1012.8
20260906130220 76 146 0.0 1.0 0.00 0.27 0.27 93 1012.8
20260906125719 75 112 0.0 1.0 0.00 0.27 0.27 96 1012.9
20260906125217 76 152 0.0 1.0 0.00 0.27 0.27 97 1012.8
20260906124712 75 132 0.0 0.0 0.00 0.27 0.27 98 1012.9
20260906124208 75 131 0.0 0.0 0.00 0.27 0.27 98 1013.2
20260906123707 75 130 0.0 1.0 0.00 0.27 0.27 98 1013.3
20260906123202 75 150 0.0 0.0 0.00 0.27 0.27 98 1012.9
20260906122701 74 149 0.0 0.0 0.00 0.27 0.27 98 1013.3
20260906122157 73 149 0.0 0.0 0.00 0.27 0.27 98 1012.9
20260906121653 73 145 0.0 0.0 0.00 0.27 0.27 98 1013.0
20260906121149 72 149 0.0 0.0 0.00 0.27 0.27 98 1013.0
20260906120645 72 151 0.0 0.0 0.00 0.27 0.27 98 1013.0
20260906120142 72 152 0.0 0.0 0.00 0.27 0.27 98 1012.7
20260906115642 71 154 0.0 0.0 0.00 0.27 0.27 98 1012.5
20260906115138 71 137 0.0 0.0 0.00 0.27 0.27 98 1012.4
20260906114636 72 134 0.0 0.0 0.00 0.27 0.27 98 1012.3
20260906114132 71 154 0.0 0.0 0.00 0.27 0.27 98 1012.3
20260906113631 71 146 0.0 0.0 0.00 0.27 0.27 98 1012.4
20260906113126 71 146 0.0 0.0 0.00 0.27 0.27 98 1012.4
20260906112626 71 140 0.0 0.0 0.00 0.27 0.27 98 1012.4
20260906112123 71 133 0.0 0.0 0.00 0.27 0.27 98 1012.2
20260906111622 71 161 0.0 0.0 0.00 0.27 0.27 98 1012.3
20260906111117 71 142 0.0 0.0 0.00 0.27 0.27 98 1012.5
20260906110612 71 141 0.0 0.0 0.00 0.27 0.27 98 1012.4
20260906110112 72 157 0.0 0.0 0.00 0.27 0.27 98 1012.4
20260906105606 72 157 0.0 0.0 0.00 0.27 0.27 98 1012.4
20260906105103 72 146 0.0 0.0 0.00 0.27 0.27 98 1012.3
20260906104601 72 150 0.0 0.0 0.00 0.27 0.27 98 1012.1
20260906104055 72 157 0.0 0.0 0.00 0.27 0.27 98 1012.2
20260906103554 72 142 0.0 0.0 0.00 0.27 0.27 98 1012.1
20260906103050 72 153 0.0 0.0 0.00 0.27 0.27 98 1012.3
20260906102549 72 152 0.0 0.0 0.00 0.27 0.27 98 1012.4
20260906102044 72 148 0.0 0.0 0.00 0.27 0.27 98 1012.5
20260906101539 72 149 0.0 0.0 0.00 0.27 0.27 98 1012.6
20260906101034 72 155 0.0 0.0 0.00 0.27 0.27 98 1012.5
20260906100530 72 155 0.0 0.0 0.00 0.27 0.27 98 1012.2
20260906100029 72 155 0.0 0.0 0.00 0.27 0.27 98 1012.5
20260906095524 72 155 0.0 0.0 0.00 0.27 0.27 98 1012.3
20260906095020 72 140 0.0 0.0 0.00 0.27 0.27 98 1012.3
20260906094518 72 140 0.0 0.0 0.00 0.27 0.27 98 1012.3
20260906094014 72 153 0.0 0.0 0.00 0.27 0.27 98 1012.0
20260906093510 72 148 1.0 1.0 0.00 0.27 0.27 98 1012.0
20260906093010 72 159 0.0 0.0 0.00 0.27 0.27 98 1011.8
20260906092505 72 152 0.0 0.0 0.00 0.27 0.27 98 1011.6
20260906092000 72 152 0.0 0.0 0.00 0.27 0.27 98 1011.7
20260906091456 72 154 0.0 0.0 0.00 0.27 0.27 98 1011.7
20260906090953 72 142 0.0 0.0 0.00 0.27 0.27 98 1011.7
20260906090448 72 142 0.0 0.0 0.00 0.27 0.27 98 1011.5
20260906085947 72 146 0.0 0.0 0.00 0.27 0.27 97 1011.6
20260906085446 72 138 0.0 0.0 0.00 0.27 0.27 97 1012.0
20260906084946 72 139 0.0 0.0 0.00 0.27 0.27 98 1011.6
20260906084441 72 42 0.0 1.0 0.00 0.27 0.27 98 1011.6
20260906083940 72 143 0.0 0.0 0.00 0.27 0.27 98 1011.4
20260906083436 72 129 0.0 1.0 0.00 0.27 0.27 98 1011.4
20260906082935 72 185 1.0 1.0 0.00 0.27 0.27 98 1011.5
20260906082430 72 134 0.0 0.0 0.00 0.27 0.27 97 1011.7
20260906081926 72 163 0.0 0.0 0.00 0.27 0.27 97 1011.9
20260906081421 72 154 0.0 0.0 0.05 0.27 0.27 97 1012.0
20260906080917 72 143 1.0 1.0 0.12 0.27 0.27 97 1012.1
20260906080414 72 138 0.0 0.0 0.07 0.26 0.26 97 1012.1
20260906075913 72 24 2.0 2.0 0.00 0.25 0.25 97 1012.2
20260906075408 72 241 1.0 2.0 0.00 0.25 0.25 97 1012.1
20260906074903 73 153 0.0 0.0 0.05 0.25 0.25 97 1011.8
20260906074403 73 165 0.0 0.0 0.05 0.25 0.25 97 1012.2
20260906073901 73 149 0.0 0.0 0.00 0.24 0.24 96 1012.7
20260906073356 73 155 1.0 1.0 0.07 0.24 0.24 96 1013.2
20260906072853 73 176 1.0 1.0 0.07 0.24 0.24 95 1013.4
20260906072348 73 29 2.0 2.0 0.05 0.23 0.23 95 1013.2
20260906071844 73 153 1.0 1.0 0.54 0.23 0.23 95 1013.5
20260906071339 73 136 1.0 1.0 0.66 0.22 0.22 95 1013.6
20260906070835 74 90 1.0 1.0 0.42 0.17 0.17 94 1014.1
20260906070331 74 169 1.0 1.0 0.50 0.11 0.11 92 1014.2
20260906065827 75 129 4.0 6.0 0.59 0.10 0.10 92 1014.8
20260906065321 75 87 4.0 6.0 0.17 0.03 0.03 92 1014.8
20260906064817 77 50 3.0 4.0 0.00 0.00 0.00 91 1014.6
20260906064313 78 68 2.0 6.0 0.00 0.00 0.00 86 1014.7
20260906063812 79 83 3.0 6.0 0.00 0.00 0.00 83 1013.9
20260906063308 79 131 2.0 3.0 0.00 0.00 0.00 83 1013.4
20260906062803 78 305 1.0 2.0 0.00 0.00 0.00 85 1013.2
20260906062305 78 89 1.0 2.0 0.00 0.00 0.00 86 1012.5
20260906061758 79 133 0.0 0.0 0.00 0.00 0.00 83 1012.5
20260906061254 79 147 2.0 2.0 0.00 0.00 0.00 83 1012.5
20260906060749 79 139 2.0 2.0 0.00 0.00 0.00 83 1012.5
20260906060247 79 60 2.0 3.0 0.00 0.00 0.00 85 1012.3
20260906055742 79 51 4.0 4.0 0.00 0.00 0.00 87 1012.4
20260906055237 79 139 1.0 1.0 0.00 0.00 0.00 87 1012.4
20260906054732 79 113 2.0 2.0 0.00 0.00 0.00 88 1012.8
20260906054227 79 2 3.0 4.0 0.00 0.00 0.00 88 1012.8
20260906053724 79 68 1.0 1.0 0.00 0.00 0.00 90 1012.7
20260906053219 79 44 3.0 3.0 0.00 0.00 0.00 90 1012.6
20260906052714 79 141 2.0 3.0 0.00 0.00 0.00 91 1012.8
20260906052211 78 39 3.0 4.0 0.00 0.00 0.00 92 1012.7
20260906051708 78 135 2.0 3.0 0.00 0.00 0.00 93 1012.7
20260906051207 76 53 4.0 7.0 0.00 0.00 0.00 96 1012.6
20260906050702 75 56 6.0 9.0 0.00 0.00 0.00 97 1012.2
20260906050157 75 129 0.0 0.0 0.00 0.00 0.00 97 1011.5
20260906045655 75 132 0.0 0.0 0.00 0.06 0.06 97 1011.6
20260906045151 75 132 0.0 0.0 0.00 0.06 0.06 97 1011.5
20260906044647 75 132 0.0 0.0 0.00 0.06 0.06 97 1011.7
20260906044142 75 132 0.0 0.0 0.00 0.06 0.06 97 1011.7
20260906043638 75 132 0.0 0.0 0.00 0.06 0.06 97 1011.8
20260906043133 75 132 0.0 0.0 0.00 0.06 0.06 97 1012.0
20260906042633 75 132 0.0 0.0 0.00 0.06 0.06 97 1012.1
20260906042127 75 132 0.0 0.0 0.00 0.06 0.06 97 1012.0
20260906041624 75 132 0.0 0.0 0.00 0.06 0.06 97 1012.1
20260906041123 75 132 0.0 0.0 0.00 0.06 0.06 97 1012.1
20260906040619 75 132 0.0 0.0 0.00 0.06 0.06 97 1012.3
20260906040115 75 133 0.0 0.0 0.00 0.06 0.06 97 1012.1
20260906035610 75 144 0.0 0.0 0.00 0.06 0.06 97 1012.2
20260906035106 75 157 0.0 0.0 0.00 0.06 0.06 97 1012.2
20260906034605 75 139 0.0 0.0 0.00 0.06 0.06 97 1012.3
20260906034100 75 131 0.0 0.0 0.00 0.06 0.06 97 1012.3
20260906033556 75 131 0.0 0.0 0.00 0.06 0.06 97 1012.3
20260906033051 75 131 0.0 0.0 0.00 0.06 0.06 97 1012.3
20260906032548 75 131 0.0 0.0 0.00 0.06 0.06 97 1012.4
20260906032047 75 131 0.0 0.0 0.00 0.06 0.06 97 1012.4
20260906031543 75 130 0.0 0.0 0.00 0.06 0.06 97 1012.1
20260906031039 75 130 0.0 0.0 0.00 0.06 0.06 97 1012.0
20260906030538 75 130 0.0 0.0 0.00 0.06 0.06 97 1012.1
20260906030038 75 130 0.0 0.0 0.00 0.06 0.06 97 1011.9
20260906025537 75 130 0.0 0.0 0.00 0.06 0.06 96 1012.0
20260906025036 75 130 0.0 0.0 0.00 0.06 0.06 96 1012.2
20260906024531 75 130 0.0 0.0 0.00 0.06 0.06 96 1012.0
20260906024031 76 130 0.0 0.0 0.00 0.06 0.06 96 1011.9
20260906023528 76 130 0.0 0.0 0.00 0.06 0.06 96 1011.8
20260906023022 76 142 0.0 0.0 0.00 0.06 0.06 96 1011.8
20260906022518 76 129 0.0 0.0 0.00 0.06 0.06 96 1011.6
20260906022013 76 128 0.0 0.0 0.00 0.06 0.06 96 1011.5
20260906021508 76 146 0.0 0.0 0.00 0.06 0.06 96 1011.5
20260906021003 76 144 0.0 0.0 0.00 0.06 0.06 96 1011.5
20260906020501 76 147 0.0 0.0 0.00 0.06 0.06 96 1011.4
20260906020001 76 115 1.0 2.0 0.00 0.06 0.06 96 1011.5
20260906015500 76 140 0.0 0.0 0.00 0.06 0.06 96 1011.5
20260906015000 76 150 0.0 0.0 0.00 0.06 0.06 96 1011.3
20260906014455 76 152 0.0 0.0 0.00 0.06 0.06 96 1011.5
20260906013951 76 152 0.0 0.0 0.00 0.06 0.06 95 1011.2
20260906013447 77 152 0.0 0.0 0.00 0.06 0.06 95 1011.2
20260906012943 77 152 0.0 0.0 0.00 0.06 0.06 95 1011.4
20260906012443 77 143 0.0 0.0 0.00 0.06 0.06 94 1011.4
20260906011942 77 143 0.0 0.0 0.00 0.06 0.06 93 1011.3
20260906011438 77 124 0.0 1.0 0.00 0.06 0.06 93 1011.4
20260906010932 77 185 0.0 0.0 0.00 0.06 0.06 93 1011.1
20260906010428 77 117 0.0 1.0 0.00 0.06 0.06 95 1011.1
20260906005924 77 140 0.0 0.0 0.00 0.06 0.06 95 1011.2
20260906005424 77 120 0.0 1.0 0.00 0.06 0.06 95 1011.0
20260906004922 77 117 0.0 0.0 0.00 0.06 0.06 95 1011.3
20260906004416 77 149 0.0 0.0 0.00 0.06 0.06 95 1011.2
20260906003912 77 145 0.0 0.0 0.00 0.06 0.06 95 1011.0
20260906003407 77 143 0.0 0.0 0.00 0.06 0.06 95 1011.0
20260906002903 78 130 0.0 0.0 0.00 0.06 0.06 95 1011.0
20260906002402 78 134 0.0 0.0 0.00 0.06 0.06 95 1010.7
20260906001857 78 130 0.0 0.0 0.00 0.06 0.06 94 1010.9
20260906001353 78 150 0.0 0.0 0.00 0.06 0.06 94 1010.8
20260906000848 79 157 0.0 0.0 0.00 0.06 0.06 93 1010.6
20260906000348 79 128 0.0 1.0 0.00 0.06 0.06 93 1010.6
20260905235843 79 185 1.0 2.0 0.00 0.06 0.06 92 1010.7
20260905235343 80 160 0.0 0.0 0.00 0.06 0.06 91 1010.6
20260905234838 80 140 0.0 0.0 0.00 0.06 0.06 89 1010.7
20260905234333 79 116 1.0 1.0 0.00 0.06 0.06 88 1010.8
20260905233829 79 78 2.0 2.0 0.00 0.06 0.06 87 1010.9
20260905233323 79 126 4.0 6.0 0.00 0.06 0.06 88 1011.2
20260905232822 80 90 1.0 2.0 0.00 0.06 0.06 88 1011.2
20260905232319 79 148 1.0 1.0 0.00 0.06 0.06 88 1011.4
20260905231814 79 78 1.0 2.0 0.00 0.06 0.06 90 1011.4
20260905231309 79 54 2.0 3.0 0.00 0.06 0.06 90 1011.7
20260905230806 79 101 3.0 4.0 0.07 0.06 0.06 89 1012.0
20260905230304 79 57 2.0 4.0 0.12 0.06 0.06 87 1011.7
20260905225803 80 313 3.0 6.0 0.12 0.06 0.06 86 1011.6
20260905225258 81 147 1.0 2.0 0.24 0.05 0.05 82 1011.3
20260905224758 82 181 1.0 1.0 0.19 0.03 0.03 81 1011.3
20260905224253 86 332 5.0 9.0 0.07 0.01 0.01 78 1011.0
20260905223749 90 129 2.0 3.0 0.00 0.00 0.00 63 1010.7
20260905223246 91 68 3.0 4.0 0.00 0.00 0.00 60 1010.8
20260905222741 98 310 6.0 9.0 0.00 0.00 0.00 53 1011.0
20260905222240 99 147 0.0 0.0 0.00 0.00 0.00 51 1010.2
20260905221736 99 310 1.0 2.0 0.00 0.00 0.00 51 1010.4
20260905221233 99 129 0.0 0.0 0.00 0.00 0.00 58 1010.4
20260905220728 100 156 0.0 0.0 0.00 0.00 0.00 52 1010.1
20260905220224 102 171 1.0 1.0 0.00 0.00 0.00 50 1010.1
20260905215724 104 166 0.0 1.0 0.00 0.00 0.00 45 1010.3
20260905215220 103 163 0.0 0.0 0.00 0.00 0.00 43 1010.3
20260905214715 103 170 1.0 1.0 0.00 0.00 0.00 48 1010.5
20260905214210 104 193 1.0 1.0 0.00 0.00 0.00 44 1010.6
20260905213706 104 123 1.0 1.0 0.00 0.00 0.00 44 1010.4
20260905213202 104 183 1.0 1.0 0.00 0.00 0.00 43 1010.5
20260905212657 104 165 0.0 0.0 0.00 0.00 0.00 44 1010.5
20260905212156 103 162 0.0 0.0 0.00 0.00 0.00 50 1010.6
20260905211650 102 166 0.0 0.0 0.00 0.00 0.00 47 1010.5
20260905211146 102 135 0.0 1.0 0.00 0.00 0.00 47 1010.6
20260905210643 101 149 0.0 0.0 0.00 0.00 0.00 47 1010.6
20260905210142 100 165 1.0 1.0 0.00 0.00 0.00 50 1010.6
20260905205642 101 157 1.0 1.0 0.00 0.00 0.00 48 1010.5
20260905205141 101 58 2.0 2.0 0.00 0.00 0.00 47 1010.6
20260905204641 100 70 1.0 2.0 0.00 0.00 0.00 48 1010.8
20260905204136 100 142 2.0 2.0 0.00 0.00 0.00 50 1010.7
20260905203637 102 203 2.0 2.0 0.00 0.00 0.00 44 1010.6
20260905203132 102 45 1.0 1.0 0.00 0.00 0.00 47 1010.8
20260905202628 103 96 1.0 1.0 0.00 0.00 0.00 45 1010.8
20260905202123 102 161 0.0 0.0 0.00 0.00 0.00 47 1011.1
20260905201618 104 120 2.0 2.0 0.00 0.00 0.00 46 1011.1
20260905201118 105 120 0.0 1.0 0.00 0.00 0.00 45 1011.1
20260905200614 104 97 1.0 1.0 0.00 0.00 0.00 46 1011.0
20260905200109 103 208 0.0 1.0 0.00 0.00 0.00 47 1011.3
20260905195607 103 188 0.0 1.0 0.00 0.00 0.00 44 1011.3
20260905195103 102 37 2.0 2.0 0.00 0.00 0.00 47 1011.5
20260905194603 102 237 0.0 0.0 0.00 0.00 0.00 47 1011.6
20260905194102 102 96 0.0 1.0 0.00 0.00 0.00 45 1011.6
20260905193557 102 263 3.0 4.0 0.00 0.00 0.00 43 1011.7
20260905193052 102 170 0.0 1.0 0.00 0.00 0.00 46 1011.5
20260905192547 102 160 0.0 1.0 0.00 0.00 0.00 43 1011.6
20260905192044 101 122 2.0 3.0 0.00 0.00 0.00 47 1011.7
20260905191542 102 342 4.0 4.0 0.00 0.00 0.00 47 1011.7
20260905191042 103 198 1.0 2.0 0.00 0.00 0.00 41 1011.9
20260905190540 103 77 1.0 2.0 0.00 0.00 0.00 43 1011.9
20260905190040 103 158 1.0 1.0 0.00 0.00 0.00 44 1012.0
20260905185539 102 153 0.0 0.0 0.00 0.00 0.00 47 1012.1
20260905185038 102 159 1.0 1.0 0.00 0.00 0.00 46 1012.2
20260905184539 102 168 0.0 0.0 0.00 0.00 0.00 44 1012.3
20260905184038 102 64 4.0 4.0 0.00 0.00 0.00 45 1012.3
20260905183538 101 145 1.0 1.0 0.00 0.00 0.00 48 1012.6
20260905183033 102 258 4.0 9.0 0.00 0.00 0.00 45 1012.6
20260905182533 102 180 0.0 0.0 0.00 0.00 0.00 50 1012.6
20260905182032 101 92 0.0 1.0 0.00 0.00 0.00 48 1012.7
20260905181527 100 163 0.0 0.0 0.00 0.00 0.00 46 1012.9
20260905181026 100 88 2.0 2.0 0.00 0.00 0.00 46 1012.7
20260905180521 101 117 2.0 4.0 0.00 0.00 0.00 46 1012.7
20260905180017 100 213 4.0 4.0 0.00 0.00 0.00 47 1012.8
20260905175516 100 285 2.0 3.0 0.00 0.00 0.00 47 1012.9
20260905175012 100 191 2.0 3.0 0.00 0.00 0.00 46 1013.0
20260905174507 99 156 0.0 1.0 0.00 0.00 0.00 46 1012.9
20260905174003 99 143 1.0 1.0 0.00 0.00 0.00 49 1013.0
20260905173459 100 177 2.0 3.0 0.00 0.00 0.00 49 1012.9
20260905172954 100 46 2.0 3.0 0.00 0.00 0.00 52 1013.0
20260905172452 99 220 2.0 2.0 0.00 0.00 0.00 49 1013.2
20260905171948 100 134 1.0 1.0 0.00 0.00 0.00 49 1013.2
20260905171444 100 216 1.0 1.0 0.00 0.00 0.00 49 1013.2
20260905170940 100 172 1.0 1.0 0.00 0.00 0.00 54 1013.0
20260905170436 99 357 1.0 1.0 0.00 0.00 0.00 51 1013.3
20260905165936 99 312 2.0 2.0 0.00 0.00 0.00 51 1013.3
20260905165431 99 189 2.0 2.0 0.00 0.00 0.00 54 1013.3
20260905164926 98 234 1.0 1.0 0.00 0.00 0.00 53 1013.5
20260905164426 99 325 2.0 2.0 0.00 0.00 0.00 54 1013.7
20260905163921 98 191 0.0 1.0 0.00 0.00 0.00 56 1013.7
20260905163418 98 124 0.0 0.0 0.00 0.00 0.00 53 1013.8
20260905162913 97 302 2.0 3.0 0.00 0.00 0.00 55 1014.1
20260905162408 98 263 2.0 2.0 0.00 0.00 0.00 52 1013.9
20260905161903 99 114 2.0 2.0 0.00 0.00 0.00 53 1014.1
20260905161402 98 216 1.0 2.0 0.00 0.00 0.00 60 1014.1
20260905160900 99 153 0.0 0.0 0.00 0.00 0.00 55 1014.2
20260905160355 97 147 1.0 1.0 0.00 0.00 0.00 56 1014.1
20260905155855 97 188 2.0 2.0 0.00 0.00 0.00 59 1014.2
20260905155354 98 194 0.0 0.0 0.00 0.00 0.00 60 1014.2
20260905154853 97 144 1.0 2.0 0.00 0.00 0.00 57 1014.2
20260905154349 96 36 2.0 2.0 0.00 0.00 0.00 59 1014.2
20260905153844 97 70 2.0 2.0 0.00 0.00 0.00 55 1014.2
20260905153341 97 172 1.0 1.0 0.00 0.00 0.00 58 1014.4
20260905152840 95 84 2.0 2.0 0.00 0.00 0.00 58 1014.2
20260905152340 96 102 2.0 3.0 0.00 0.00 0.00 56 1014.3
20260905151835 96 144 0.0 0.0 0.00 0.00 0.00 59 1014.3
20260905151331 95 67 1.0 1.0 0.00 0.00 0.00 59 1014.3
20260905150830 96 200 1.0 2.0 0.00 0.00 0.00 58 1014.0
20260905150325 96 138 1.0 1.0 0.00 0.00 0.00 59 1014.2
20260905145823 94 93 1.0 1.0 0.00 0.00 0.00 62 1014.2
20260905145322 95 256 1.0 1.0 0.00 0.00 0.00 62 1014.2
20260905144821 95 146 0.0 1.0 0.00 0.00 0.00 64 1014.4
20260905144317 94 129 0.0 0.0 0.00 0.00 0.00 66 1014.5
20260905143816 93 140 0.0 0.0 0.00 0.00 0.00 66 1014.2
20260905143310 92 142 1.0 1.0 0.00 0.00 0.00 67 1014.4
20260905142809 92 155 1.0 1.0 0.00 0.00 0.00 71 1014.5
20260905142305 92 141 0.0 0.0 0.00 0.00 0.00 71 1014.5
20260905141759 91 158 2.0 2.0 0.00 0.00 0.00 73 1014.6
20260905141255 90 149 1.0 1.0 0.00 0.00 0.00 74 1014.4
20260905140751 90 144 0.0 1.0 0.00 0.00 0.00 74 1014.7
20260905140250 90 162 1.0 1.0 0.00 0.00 0.00 75 1014.5
20260905135749 89 151 0.0 1.0 0.00 0.00 0.00 75 1014.6
20260905135245 89 153 0.0 0.0 0.00 0.00 0.00 79 1014.7
20260905134745 88 147 0.0 0.0 0.00 0.00 0.00 79 1014.6
20260905134244 87 144 0.0 0.0 0.00 0.00 0.00 80 1014.5
20260905133739 86 145 0.0 0.0 0.00 0.00 0.00 81 1014.6
20260905133235 84 150 0.0 0.0 0.00 0.00 0.00 83 1014.8
20260905132733 84 150 0.0 1.0 0.00 0.00 0.00 86 1014.8
20260905132229 84 144 0.0 0.0 0.00 0.00 0.00 84 1014.6